[[{"header":{"parameterUnit":"m.s-1","parameterCategory":1,"la1":30.2991,"la2":30.254,"lo1":-89.0895,"lo2":-89.0444,"dy":0.0017,"dx":0.0017,"nx":28,"ny":28,"refTime":"2024-02-26T09:00:00:Z","depth":0,"parameterNumber":2,"parameterNumberName":"U-component_of_WINDS"},"data":[0,0,0,0,0,0,0,0,0,0,0,0,0,0,0,0,0,0,0,0,0,0,0,0,0,0,0,0,0,0,0,0,0,0,0,0,0,0,0,0,0,0,0,0,0,0,0,0,0,0,0,0,0,0,0,0,0,0,0.2501,0.2501,0,0.2532,0.2532,0.2532,0.2516,0.2516,0.2515,0.2514,0.2546,0.2548,0.255,0,0,0,0,0,0,0,0,0,0,0,0,0,0.2429,0.243,0.2501,0.2501,0.2501,0.2532,0.2532,0.2533,0.2517,0.2516,0.2515,0.2514,0.2546,0.2548,0.255,0,0,0,0,0,0,0,0,0,0,0,0,0,0.246,0.2431,0.2501,0.2497,0.2497,0.2532,0.2532,0.2533,0.2517,0.2516,0.2514,0.2513,0.2545,0.2548,0.255,0.259,0,0,0.2558,0.2559,0,0,0,0,0,0,0,0,0.2458,0.2463,0.2497,0.2497,0.2497,0.2519,0.2519,0.2552,0.2517,0.2509,0.2514,0.2513,0.2538,0.2541,0.255,0.2592,0.2593,0.2558,0.2559,0.256,0.2561,0,0,0,0,0,0,0,0.2456,0.2461,0.2513,0.2498,0.2498,0.2494,0.2497,0.2525,0.253,0.251,0.2509,0.2513,0.2538,0.2548,0.2551,0.2593,0.2558,0.256,0.2561,0.2562,0.267,0.2671,0,0,0,0,0,0,0.2454,0.2459,0.2512,0.2514,0.2474,0.2497,0.25,0.2513,0.253,0.2531,0.2514,0.2512,0.2544,0.2548,0.2552,0.26,0.256,0.2563,0.2564,0.2669,0.267,0.2672,0,0,0,0,0,0,0.2452,0.2459,0.2511,0.2486,0.2493,0.2499,0.2514,0.2515,0.2524,0.2533,0.2534,0.2522,0.2543,0.2548,0.2581,0.2601,0.2564,0.2566,0.2667,0.2669,0.2671,0.2696,0,0,0,0,0,0,0.245,0.2458,0.2473,0.2487,0.2494,0.2539,0.2515,0.2516,0.2528,0.2526,0.2541,0.2542,0.2543,0.2577,0.2583,0.2603,0.2568,0.2665,0.2668,0.267,0.2693,0.2699,0.2703,0,0,0,0,0,0.2448,0.2479,0.2474,0.2481,0.2513,0.254,0.2544,0.2544,0.253,0.2545,0.2551,0.2542,0.2597,0.2581,0.2587,0.2608,0.2664,0.2667,0.267,0.2691,0.2698,0.2703,0,0,0,0,0,0,0.2468,0.2481,0.2475,0.2512,0.2525,0.2537,0.2557,0.255,0.2568,0.2565,0.2564,0.2567,0.2601,0.2608,0.2589,0.2648,0.2629,0.2633,0.2642,0.2649,0.2653,0.2651,0.257,0,0,0,0,0,0.2476,0.2497,0.2508,0.2539,0.2546,0.255,0.2562,0.256,0.2574,0.2579,0.2588,0.2602,0.2622,0.2636,0.2655,0.2694,0.2698,0.2712,0.2717,0.2721,0.2725,0.2747,0.2754,0.2682,0.2682,0.2682,0,0,0.2494,0.2504,0.2517,0.2543,0.2553,0.2575,0.2555,0.2579,0.2595,0.2583,0.2614,0.2621,0.2636,0.2673,0.2689,0.2679,0.2746,0.2725,0.2728,0.273,0.2751,0.2758,0.2764,0.2684,0.2684,0.2683,0,0,0.2538,0.2548,0.2575,0.2585,0.2601,0.2604,0.261,0.2624,0.2628,0.2659,0.2651,0.267,0.2706,0.2717,0.2727,0.2777,0.2769,0.2783,0.2808,0.283,0.2835,0.284,0.2858,0.2864,0.2787,0.2787,0.2787,0,0.2559,0.2591,0.259,0.2614,0.2626,0.2616,0.2644,0.2655,0.2676,0.2684,0.2673,0.2718,0.2727,0.2766,0.2778,0.2787,0.2795,0.2781,0.2835,0.284,0.2844,0.2861,0.2868,0.2789,0.2788,0.2788,0.2788,0,0.2616,0.2638,0.2659,0.2679,0.2693,0.272,0.2722,0.2737,0.2734,0.2738,0.2771,0.2782,0.2804,0.2813,0.281,0.2852,0.2845,0.2834,0.2815,0.2853,0.2869,0.2875,0.2791,0.279,0.279,0.2789,0,0,0.2672,0.2692,0.27,0.2709,0.2726,0.2744,0.277,0.2791,0.2803,0.2819,0.2841,0.2871,0.2861,0.2873,0.2872,0.2891,0.2929,0.2878,0.2878,0.2887,0.2976,0.2984,0.2991,0.2924,0.2926,0.2927,0.2975,0,0.2718,0.2763,0.2763,0.2805,0.2826,0.2817,0.284,0.2853,0.2858,0.2877,0.2882,0.2904,0.2889,0.2896,0.2914,0.2921,0.2947,0.2917,0.2945,0.2946,0.2942,0.3,0.3008,0.3053,0.2981,0.2982,0.2983,0,0.2776,0.2793,0.2837,0.2852,0.286,0.2881,0.2901,0.2919,0.2933,0.2936,0.2949,0.2945,0.2972,0.2952,0.2989,0.2969,0.298,0.2985,0.2987,0.299,0.2967,0.3004,0.3067,0.3074,0.2992,0.2992,0.2991,0,0.2813,0.2848,0.2878,0.2887,0.2904,0.2919,0.2927,0.294,0.2953,0.297,0.2979,0.2999,0.301,0.3026,0.3028,0.3013,0.3066,0.3045,0.3069,0.3069,0.308,0.3079,0.3146,0.3087,0.3087,0.3087,0.3087,0,0.2864,0.2891,0.2895,0.2914,0.2945,0.2945,0.2975,0.2982,0.2994,0.3015,0.3009,0.3028,0.3029,0.3049,0.3051,0.3082,0.3087,0.309,0.309,0.309,0.309,0.3098,0.3095,0.3089,0.3089,0.3088,0.3088,0,0.291,0.2914,0.2947,0.2961,0.2965,0.2987,0.2999,0.3018,0.3022,0.3048,0.3054,0.3061,0.3084,0.3088,0.3115,0.3116,0.3154,0.315,0.3149,0.3148,0.3171,0.3169,0.3245,0.3255,0.319,0.3191,0.3191,0,0.2942,0.2963,0.2979,0.2992,0.3001,0.3023,0.3036,0.3037,0.3051,0.307,0.3086,0.3109,0.3127,0.3165,0.3172,0.3193,0.3191,0.3216,0.3194,0.3194,0.3191,0.319,0.3192,0.322,0.3221,0.3221,0.3222,0,0.2998,0.2999,0.3018,0.3039,0.3055,0.3071,0.3086,0.3097,0.31,0.3117,0.314,0.3155,0.3183,0.3205,0.3226,0.3235,0.3229,0.3229,0.3235,0.3236,0.3234,0.3236,0.316,0.3227,0.3226,0.3226,0.3226,0.3226,0.3038,0.3057,0.3071,0.3093,0.3105,0.3119,0.3137,0.3144,0.3164,0.3187,0.3186,0.3213,0.3227,0.3255,0.3265,0.3286,0.3278,0.3287,0.3289,0.3292,0.3294,0.3231,0.329,0.3289,0.3289,0.3289,0.3289,0,0.3094,0.3103,0.3123,0.3145,0.3162,0.3155,0.3172,0.3187,0.321,0.3225,0.3243,0.3271,0.3293,0.3303,0.3325,0.3339,0.3337,0.3345,0.3344,0.3346,0.33,0.3292,0.3346,0.3346,0.3346,0.3346,0.3346,0.3346,0.3125,0.3156,0.3159,0.3196,0.3205,0.323,0.3241,0.3254,0.3266,0.3297,0.3315,0.3322,0.3334,0.3357,0.3378,0.338,0.3388,0.3397,0.3398,0.3355,0.3349,0.3344,0.3336,0.3399,0.3399,0.3443,0.3443,0.3444]},{"header":{"parameterUnit":"m.s-1","parameterCategory":1,"la1":30.2991,"la2":30.254,"lo1":-89.0895,"lo2":-89.0444,"dy":0.0017,"dx":0.0017,"nx":28,"ny":28,"refTime":"2024-02-26T09:00:00:Z","depth":0,"parameterNumber":3,"parameterNumberName":"V-component_of_WINDS"},"data":[0,0,0,0,0,0,0,0,0,0,0,0,0,0,0,0,0,0,0,0,0,0,0,0,0,0,0,0,0,0,0,0,0,0,0,0,0,0,0,0,0,0,0,0,0,0,0,0,0,0,0,0,0,0,0,0,0,0,2.1573,2.1574,0,2.1635,2.1635,2.1636,2.1602,2.16,2.1598,2.1597,2.1661,2.1665,2.1668,0,0,0,0,0,0,0,0,0,0,0,0,0,2.1426,2.1429,2.1573,2.1574,2.1574,2.1635,2.1636,2.1636,2.1602,2.16,2.1598,2.1596,2.166,2.1664,2.1668,0,0,0,0,0,0,0,0,0,0,0,0,0,2.1489,2.1429,2.1573,2.1565,2.1564,2.1634,2.1636,2.1637,2.1603,2.16,2.1597,2.1595,2.1659,2.1664,2.1669,2.1751,0,0,2.1684,2.1686,0,0,0,0,0,0,0,0,2.1485,2.1494,2.1565,2.1565,2.1565,2.1608,2.1607,2.1675,2.1603,2.1588,2.1597,2.1594,2.1646,2.1652,2.1669,2.1754,2.1756,2.1684,2.1687,2.1689,2.1691,0,0,0,0,0,0,0,2.1481,2.1491,2.1597,2.1566,2.1566,2.1558,2.1564,2.162,2.1631,2.1589,2.1587,2.1595,2.1645,2.1664,2.167,2.1757,2.1684,2.1688,2.1692,2.1693,2.1912,2.1915,0,0,0,0,0,0,2.1477,2.1488,2.1595,2.1599,2.1518,2.1563,2.157,2.1597,2.163,2.1632,2.1597,2.1593,2.1657,2.1664,2.1672,2.177,2.1689,2.1694,2.1697,2.1909,2.1913,2.1916,0,0,0,0,0,0,2.1474,2.1487,2.1593,2.1543,2.1556,2.1568,2.1599,2.1599,2.1618,2.1636,2.1637,2.1614,2.1655,2.1665,2.1731,2.1772,2.1696,2.1701,2.1906,2.191,2.1914,2.1967,0,0,0,0,0,0,2.147,2.1486,2.1517,2.1544,2.1559,2.1651,2.1601,2.1602,2.1627,2.1622,2.1652,2.1655,2.1654,2.1724,2.1736,2.1777,2.1705,2.1902,2.1908,2.1913,2.1962,2.1973,2.1982,0,0,0,0,0,2.1465,2.153,2.1519,2.1532,2.1598,2.1653,2.1662,2.1659,2.163,2.1662,2.1673,2.1654,2.1765,2.1731,2.1744,2.1788,2.19,2.1906,2.1912,2.1957,2.197,2.1982,0,0,0,0,0,0,2.1508,2.1533,2.1521,2.1597,2.1623,2.1647,2.1687,2.1673,2.1708,2.1703,2.1698,2.1705,2.1774,2.1787,2.1749,2.1869,2.1828,2.1837,2.1858,2.187,2.188,2.1876,2.1709,0,0,0,0,0,2.1526,2.1569,2.1589,2.1654,2.1667,2.1675,2.1699,2.1695,2.1722,2.1733,2.1749,2.1776,2.1817,2.1844,2.1883,2.1963,2.1969,2.2,2.201,2.2018,2.2026,2.207,2.2083,2.1937,2.1936,2.1936,0,0,2.1565,2.1584,2.1611,2.1663,2.1683,2.1727,2.1685,2.1734,2.1767,2.174,2.1804,2.1816,2.1846,2.1919,2.1953,2.1933,2.2068,2.2026,2.2032,2.2036,2.2077,2.2091,2.2104,2.1941,2.194,2.1939,0,0,2.1657,2.1676,2.1732,2.1753,2.1783,2.1787,2.1801,2.1827,2.1834,2.1898,2.1879,2.1918,2.1989,2.2011,2.2032,2.2132,2.2116,2.2145,2.2198,2.224,2.2252,2.2262,2.2298,2.2311,2.2153,2.2153,2.2153,0,2.1702,2.1768,2.1763,2.1813,2.1837,2.1814,2.1871,2.1891,2.1933,2.195,2.1927,2.2015,2.2034,2.2112,2.2136,2.2154,2.2169,2.2142,2.225,2.2261,2.227,2.2304,2.2318,2.2157,2.2156,2.2156,2.2156,0,2.182,2.1866,2.1908,2.1948,2.1976,2.203,2.2033,2.2062,2.2055,2.2062,2.2127,2.2148,2.2191,2.2209,2.2203,2.2287,2.2273,2.2251,2.221,2.2287,2.232,2.2333,2.2161,2.216,2.2159,2.2158,0,0,2.1943,2.1979,2.1995,2.2013,2.2044,2.208,2.2132,2.2173,2.2198,2.2228,2.2272,2.2332,2.2311,2.2334,2.233,2.2367,2.2446,2.234,2.234,2.2359,2.2539,2.2556,2.2572,2.2435,2.2437,2.2439,2.2537,0,2.2038,2.2129,2.2126,2.2211,2.2254,2.2233,2.2278,2.2303,2.2311,2.2348,2.2356,2.2399,2.2368,2.2382,2.2418,2.2429,2.2482,2.2421,2.2476,2.2478,2.247,2.2589,2.2607,2.2698,2.2549,2.2551,2.2553,0,2.2161,2.2194,2.2283,2.2308,2.2326,2.2367,2.2405,2.244,2.2468,2.2471,2.2496,2.2486,2.254,2.2497,2.257,2.2529,2.2551,2.256,2.2563,2.2568,2.2521,2.2598,2.2727,2.2741,2.2573,2.2571,2.257,0,2.2242,2.2309,2.2371,2.2387,2.2417,2.2446,2.2461,2.2485,2.251,2.2543,2.2559,2.2598,2.2619,2.2649,2.265,2.2619,2.2724,2.2681,2.2728,2.2728,2.2752,2.2751,2.2887,2.2765,2.2765,2.2765,2.2765,0,2.2349,2.2404,2.2407,2.2446,2.2507,2.2503,2.2564,2.2575,2.2597,2.2637,2.2621,2.266,2.2658,2.2697,2.2697,2.2758,2.2768,2.2772,2.2771,2.2774,2.2773,2.2788,2.2782,2.2769,2.2768,2.2767,2.2766,0,2.245,2.2454,2.252,2.2544,2.2551,2.2595,2.2615,2.2651,2.2657,2.2708,2.272,2.273,2.2774,2.2778,2.283,2.283,2.2904,2.2896,2.2895,2.2893,2.294,2.2936,2.3092,2.3112,2.2977,2.2978,2.2979,0,2.2518,2.256,2.2588,2.2613,2.2629,2.2671,2.2696,2.2693,2.272,2.2754,2.2786,2.2829,2.2863,2.2936,2.2947,2.2987,2.298,2.3032,2.2986,2.2987,2.2982,2.298,2.2984,2.3042,2.3043,2.3044,2.3045,0,2.2639,2.2639,2.2676,2.2713,2.2744,2.2773,2.2801,2.2823,2.2824,2.2855,2.29,2.2926,2.2979,2.3022,2.306,2.3075,2.3061,2.3059,2.3072,2.3076,2.3073,2.3075,2.2919,2.3056,2.3055,2.3054,2.3054,2.3053,2.2726,2.2762,2.2788,2.2829,2.2849,2.2875,2.2911,2.2921,2.2958,2.3001,2.2997,2.3047,2.3073,2.3123,2.314,2.3179,2.3162,2.3181,2.3186,2.319,2.3196,2.3066,2.3186,2.3186,2.3186,2.3185,2.3185,0,2.2846,2.2861,2.2899,2.2938,2.2971,2.2954,2.2983,2.3012,2.3056,2.3081,2.3115,2.3167,2.3208,2.3223,2.3263,2.3292,2.3286,2.3303,2.3301,2.3304,2.3209,2.3194,2.3306,2.3306,2.3306,2.3306,2.3306,2.3306,2.2913,2.2974,2.2976,2.3047,2.3062,2.311,2.3129,2.3153,2.3173,2.3231,2.3265,2.3274,2.3295,2.3337,2.3374,2.3377,2.3393,2.3412,2.3413,2.3323,2.3311,2.33,2.3285,2.3416,2.3416,2.3505,2.3506,2.3507]}]]